Find Qianfan 05-07

NORAD ID: 63165 Int'l Des: 2025-046 Owner: YUANX Country: CN Constellation: spacesail operational
LEOCIRCULARPOLAR

当前视图

正在加载3D地球...

关于 Qianfan 05-07

正在加载描述...

即将过境

Passes for default location (London). Set your location on the main map for personalized predictions.

高度历史

Loading altitude history...

两行轨道根数

1 63165U 25046G 26146.58158155 .00000084 00000-0 11172-3 0 9992
2 63165 88.9695 303.0143 0015023 19.6043 340.5683 13.51007408 69638
Epoch: May 26, 2026 • Age: 5 hours

当前状态

高度 1100.3 km
速度 7.30 km/s
星下点 -86.44°S, 118.99°E
发射日期 Mar 11, 2025
运行时间 1.2 years
类型 internet

技术详情

分类 Payload
质量 267.00 kg
干质量 267.00 kg
总质量 267.00 kg
长度 0.30 m
直径 3.00 m
跨度 10.00 m
形状 Box+pan
制造商 GESIH
平台类型 Qianfan
阶段状态 In Orbit
所有者/国家 YUANX/CN

Most Searched